Simultaneous Nadir Overpasses (SNOs) Predictions

Prediction of SNOs between AQUA and METOP-A Satellite Orbit:

Table of predicted SNOs for the next 14.0 days since TLE Epoch: 1/27/2012
Index Date Time (AQUA) AQUA Lat,Lon METOP-A Lat,Lon Distance(km) Time Diff (sec)
1 01/29/2012 18:41:48 72.38,-103.55 72.35,-109.13 188.12 55
2 01/29/2012 19:31:40 -73.77, 61.31 -73.76, 61.25 1.93 33
3 01/29/2012 20:21:08 73.84,-131.21 73.84,-131.22 0.94 36
4 01/29/2012 21:11:03 -75.32, 32.76 -75.29, 39.99 204.10 53
5 02/01/2012 14:16:13 72.11, -36.69 72.05, -43.31 226.59 50
6 02/01/2012 15:06:10 -73.76, 127.71 -73.77, 127.68 2.18 39
7 02/01/2012 15:55:39 73.83, -64.81 73.85, -64.80 2.86 30
8 02/01/2012 16:45:29 -75.06, 99.85 -75.07, 105.74 168.57 57
9 02/04/2012 09:50:37 71.34, 30.96 71.38, 21.86 323.08 36
10 02/04/2012 10:40:48 -73.74,-165.90 -73.73,-166.02 3.48 51
11 02/04/2012 11:30:17 73.80, 1.58 73.80, 1.49 2.78 18
12 02/04/2012 12:19:57 -74.52, 167.56 -74.55, 170.69 92.93 65
13 02/07/2012 06:15:34 -73.75, -99.63 -73.73, -99.61 2.59 72
14 02/07/2012 07:05:03 73.82, 67.85 73.80, 67.88 3.00 3
15 02/07/2012 07:54:30 -73.86,-124.60 -73.86,-124.64 1.35 71
16 02/10/2012 01:50:07 -72.77, -31.32 -72.72, -35.44 135.80 61
17 02/10/2012 02:39:54 73.78, 134.23 73.79, 134.26 1.16 30
18 02/10/2012 03:29:22 -73.86, -58.31 -73.86, -58.25 1.97 43




NCC Satellite Simultaneous Nadir Overpasses (SNOs) Prediction Service
